Вернуться в каталог

CZ-6A DEB

АктивенSSO
NORAD 54468·DEBRIS·🇨🇳 China

Запущен Nov 11, 2022 с Taiyuan Satellite Launch Center

Loading…

Ближайшие Пролёты (ближайшие 24 часа)

TLE

СвежийSource: Space-Track

Эпоха: Sep 14, 2026, 00:38 UTC

1 54468U 22151GU  26257.02671742  .00000547  00000-0  26434-3 0  9997
2 54468  98.7522 269.4708 0053817  90.4296 270.3048 14.21811469198731

Отслеживайте CZ-6A DEB в реальном времени с AllMySat

Download on the App Store